Tracking 35331 objects as of 14-Sep-2026
HD Live streaming from Space Station
objects crossing your sky now

SL-4 R/B


SL-4 R/B is no longer on orbit


NORAD ID: 10173
Int'l Code: 1977-074B
Launch date: August 3, 1977
Source: Commonwealth of Independent States (former USSR) (CIS)
Launch site: PLESETSK MISSILE AND SPACE COMPLEX (PKMTR)
Decay date: 1977-08-28

Note: This is a ROCKET BODY
Your satellite tracking list
Your tracking list is empty




NASA's NSSDC Master Catalog

Two Line Element Set (TLE):
1 10173U 77074  B 77240.37124998  .14001162 +00000-0 +00000-0 0  9995
2 10173 062.7621 014.3519 0000520 096.0566 274.8008 16.46072388003995
Source of the keplerian elements: AFSPC